This is the latest recevied weather packets stored in our database for station/object KM8V-8. If no packets are shown the sender has not sent any weather packets the latest 10 day(s).
| Time | Temp. | Humidity | Pressure | Rain* | Wind** | Luminosity | Snow |
|---|---|---|---|---|---|---|---|
| 1777511420 | 7.22° C | 100% | 1011.5 hPa | 0 mm | - | 0 W/m² | - |
| 1777511121 | 7.22° C | 100% | 1011.5 hPa | 0 mm | - | 0 W/m² | - |
| 1777510820 | 7.22° C | 100% | 1011.4 hPa | 0 mm | - | 0 W/m² | - |
| 1777510521 | 7.22° C | 100% | 1011.5 hPa | 0 mm | - | 0 W/m² | - |
| 1777510221 | 7.22° C | 100% | 1011.4 hPa | 0 mm | - | 0 W/m² | - |
| 1777509921 | 7.22° C | 100% | 1011.4 hPa | 0 mm | - | 0 W/m² | - |
| 1777509622 | 7.22° C | 100% | 1011.3 hPa | 0 mm | - | 0 W/m² | - |
| 1777509321 | 7.22° C | 100% | 1011.3 hPa | 0 mm | - | 0 W/m² | - |
| 1777509022 | 7.78° C | 100% | 1011.3 hPa | 0 mm | - | 0 W/m² | - |
| 1777508721 | 7.78° C | 100% | 1011.2 hPa | 0 mm | - | 1 W/m² | - |
| 1777508421 | 7.78° C | 100% | 1011 hPa | 0 mm | - | 2 W/m² | - |
| 1777508125 | 7.78° C | 100% | 1010.9 hPa | 0 mm | - | 4 W/m² | - |
| 1777507822 | 7.78° C | 100% | 1010.9 hPa | 0 mm | - | 3 W/m² | - |
| 1777507522 | 7.78° C | 100% | 1011 hPa | 0 mm | - | 3 W/m² | - |
| 1777507222 | 7.78° C | 100% | 1010.9 hPa | 0 mm | - | 4 W/m² | - |
| 1777506921 | 7.78° C | 100% | 1010.7 hPa | 0 mm | - | 4 W/m² | - |
| 1777506622 | 7.78° C | 100% | 1010.5 hPa | 0 mm | - | 12 W/m² | - |
| 1777506322 | 7.78° C | 100% | 1010.4 hPa | 0 mm | - | 22 W/m² | - |
| 1777506022 | 7.78° C | 100% | 1010.5 hPa | 0 mm | - | 22 W/m² | - |
| 1777505722 | 7.78° C | 100% | 1010.6 hPa | 0 mm | - | 17 W/m² | - |
| 1777505422 | 8.33° C | 100% | 1010.6 hPa | 0 mm | - | 29 W/m² | - |
| 1777505123 | 8.33° C | 100% | 1010.6 hPa | 0 mm | - | 29 W/m² | - |
| 1777504823 | 8.33° C | 100% | 1010.6 hPa | 0 mm | - | 36 W/m² | - |
| 1777504523 | 8.33° C | 100% | 1010.6 hPa | 0 mm | - | 29 W/m² | - |
| 1777504217 | 8.33° C | 100% | 1010.6 hPa | 0 mm | - | 46 W/m² | - |
* Rain latest hour (hover to see other rain measurements)
** Current wind speed in m/s (hover to see current wind gust speed)